Time,TemperatureF,DewpointF,PressureIn,WindDirection,WindDirectionDegrees,WindSpeedMPH,WindSpeedGustMPH,Humidity,HourlyPrecipIn,Conditions,Clouds,dailyrainin,SoftwareType,DateUTC
2013-04-09 00:03:00,30.4,22.4,30.25,West,265,0.0,0.0,72,0.00,CLR,,0.00,WeatherDisplay:10.37,2013-04-09 07:03:00,
2013-04-09 00:08:00,29.7,22.1,30.25,West,265,0.0,0.0,73,0.00,CLR,,0.00,WeatherDisplay:10.37,2013-04-09 07:08:00,
2013-04-09 00:13:00,28.8,21.6,30.25,West,265,0.0,0.0,74,0.00,CLR,,0.00,WeatherDisplay:10.37,2013-04-09 07:13:00,
2013-04-09 00:18:00,28.8,22.5,30.25,West,265,0.0,0.0,77,0.00,CLR,,0.00,WeatherDisplay:10.37,2013-04-09 07:18:00,
2013-04-09 00:23:00,29.7,23.1,30.26,West,265,0.0,0.0,76,0.00,CLR,,0.00,WeatherDisplay:10.37,2013-04-09 07:23:00,
2013-04-09 00:28:00,29.7,22.7,30.26,West,265,0.0,0.0,75,0.00,CLR,,0.00,WeatherDisplay:10.37,2013-04-09 07:28:00,
2013-04-09 00:33:00,29.4,22.8,30.26,West,265,0.0,0.0,76,0.00,CLR,,0.00,WeatherDisplay:10.37,2013-04-09 07:33:00,
2013-04-09 00:38:00,29.1,22.5,30.26,West,267,0.0,0.0,76,0.00,CLR,,0.00,WeatherDisplay:10.37,2013-04-09 07:38:00,
2013-04-09 00:43:00,29.3,23.0,30.26,West,265,0.0,0.0,77,0.00,CLR,,0.00,WeatherDisplay:10.37,2013-04-09 07:43:00,
2013-04-09 00:48:00,29.4,23.1,30.26,West,267,0.0,0.0,77,0.00,CLR,,0.00,WeatherDisplay:10.37,2013-04-09 07:48:00,
2013-04-09 00:53:00,29.1,22.5,30.27,West,267,0.0,0.0,76,0.00,CLR,,0.00,WeatherDisplay:10.37,2013-04-09 07:53:00,
2013-04-09 00:58:00,29.0,22.7,30.27,West,265,0.0,0.0,77,0.00,CLR,,0.00,WeatherDisplay:10.37,2013-04-09 07:58:00,
2013-04-09 01:03:00,29.1,23.1,30.27,West,267,0.0,0.0,78,0.00,CLR,,0.00,WeatherDisplay:10.37,2013-04-09 08:03:00,
2013-04-09 01:08:00,29.1,22.8,30.27,West,267,0.0,0.0,77,0.00,CLR,,0.00,WeatherDisplay:10.37,2013-04-09 08:08:00,
2013-04-09 01:13:00,29.0,22.7,30.27,West,265,0.0,0.0,77,0.00,CLR,,0.00,WeatherDisplay:10.37,2013-04-09 08:13:00,
2013-04-09 01:18:00,28.7,22.4,30.27,West,265,0.0,0.0,77,0.00,CLR,,0.00,WeatherDisplay:10.37,2013-04-09 08:18:00,
2013-04-09 01:23:00,28.1,21.5,30.28,West,265,0.0,0.0,76,0.00,CLR,,0.00,WeatherDisplay:10.37,2013-04-09 08:23:00,
2013-04-09 01:28:00,27.9,21.9,30.28,West,265,0.0,0.0,78,0.00,CLR,,0.00,WeatherDisplay:10.37,2013-04-09 08:28:00,
2013-04-09 01:33:00,27.8,21.8,30.28,West,265,0.0,0.0,78,0.00,CLR,,0.00,WeatherDisplay:10.37,2013-04-09 08:33:00,
2013-04-09 01:38:00,27.9,21.9,30.28,West,267,0.0,0.0,78,0.00,CLR,,0.00,WeatherDisplay:10.37,2013-04-09 08:38:00,
2013-04-09 01:43:00,28.1,22.1,30.28,West,265,0.0,0.0,78,0.00,CLR,,0.00,WeatherDisplay:10.37,2013-04-09 08:43:00,
2013-04-09 01:48:00,28.4,22.1,30.28,West,265,0.0,0.0,77,0.00,CLR,,0.00,WeatherDisplay:10.37,2013-04-09 08:48:00,
2013-04-09 01:53:00,28.2,21.9,30.28,West,265,0.0,0.0,77,0.00,CLR,,0.00,WeatherDisplay:10.37,2013-04-09 08:53:00,
2013-04-09 01:58:00,27.9,21.3,30.28,West,267,0.0,0.0,76,0.00,CLR,,0.00,WeatherDisplay:10.37,2013-04-09 08:58:00,
2013-04-09 02:03:00,27.5,21.2,30.27,West,267,0.0,0.0,77,0.00,CLR,,0.00,WeatherDisplay:10.37,2013-04-09 09:03:00,
2013-04-09 02:08:00,27.0,20.7,30.28,West,265,0.0,0.0,77,0.00,CLR,,0.00,WeatherDisplay:10.37,2013-04-09 09:08:00,
2013-04-09 02:13:00,27.2,21.2,30.28,West,267,0.0,0.0,78,0.00,CLR,,0.00,WeatherDisplay:10.37,2013-04-09 09:13:00,
2013-04-09 02:18:00,27.6,21.3,30.27,West,265,0.0,0.0,77,0.00,CLR,,0.00,WeatherDisplay:10.37,2013-04-09 09:18:00,
2013-04-09 02:23:00,27.8,21.5,30.27,West,265,0.0,0.0,77,0.00,CLR,,0.00,WeatherDisplay:10.37,2013-04-09 09:23:00,
2013-04-09 02:28:00,27.8,21.5,30.27,West,265,0.0,0.0,77,0.00,CLR,,0.00,WeatherDisplay:10.37,2013-04-09 09:28:00,
2013-04-09 02:33:00,27.9,21.6,30.27,West,265,0.0,0.0,77,0.00,CLR,,0.00,WeatherDisplay:10.37,2013-04-09 09:33:00,
2013-04-09 02:38:00,28.1,21.5,30.27,West,265,0.0,0.0,76,0.00,CLR,,0.00,WeatherDisplay:10.37,2013-04-09 09:38:00,
2013-04-09 02:43:00,28.2,21.6,30.27,West,265,0.0,0.0,76,0.00,CLR,,0.00,WeatherDisplay:10.37,2013-04-09 09:43:00,
2013-04-09 02:48:00,28.2,21.6,30.27,West,265,0.0,0.0,76,0.00,CLR,,0.00,WeatherDisplay:10.37,2013-04-09 09:48:00,
2013-04-09 02:53:00,27.9,21.3,30.27,West,265,0.0,0.0,76,0.00,CLR,,0.00,WeatherDisplay:10.37,2013-04-09 09:53:00,
2013-04-09 02:58:00,27.5,21.2,30.27,West,265,0.0,0.0,77,0.00,CLR,,0.00,WeatherDisplay:10.37,2013-04-09 09:58:00,
2013-04-09 03:03:00,27.2,20.9,30.28,West,265,0.0,0.0,77,0.00,CLR,,0.00,WeatherDisplay:10.37,2013-04-09 10:03:00,
2013-04-09 03:08:00,27.2,20.9,30.28,West,265,0.0,0.0,77,0.00,CLR,,0.00,WeatherDisplay:10.37,2013-04-09 10:08:00,
2013-04-09 03:13:00,27.2,20.9,30.28,West,265,0.0,0.0,77,0.00,CLR,,0.00,WeatherDisplay:10.37,2013-04-09 10:13:00,
2013-04-09 03:18:00,27.3,21.0,30.28,West,265,0.0,0.0,77,0.00,CLR,,0.00,WeatherDisplay:10.37,2013-04-09 10:18:00,
2013-04-09 03:24:00,27.3,21.0,30.28,West,265,0.0,0.0,77,0.00,CLR,,0.00,WeatherDisplay:10.37,2013-04-09 10:24:00,
2013-04-09 03:29:00,27.3,21.0,30.28,West,265,0.0,0.0,77,0.00,CLR,,0.00,WeatherDisplay:10.37,2013-04-09 10:29:00,
2013-04-09 03:35:00,27.3,21.0,30.29,West,265,0.0,0.0,77,0.00,CLR,,0.00,WeatherDisplay:10.37,2013-04-09 10:35:00,
2013-04-09 03:40:00,27.5,21.2,30.28,West,265,0.0,0.0,77,0.00,CLR,,0.00,WeatherDisplay:10.37,2013-04-09 10:40:00,
2013-04-09 03:45:00,27.6,21.3,30.28,West,265,0.0,0.0,77,0.00,CLR,,0.00,WeatherDisplay:10.37,2013-04-09 10:45:00,
2013-04-09 03:50:00,27.6,21.3,30.28,West,265,0.0,0.0,77,0.00,CLR,,0.00,WeatherDisplay:10.37,2013-04-09 10:50:00,
2013-04-09 03:55:00,27.5,21.2,30.29,West,265,0.0,0.0,77,0.00,CLR,,0.00,WeatherDisplay:10.37,2013-04-09 10:55:00,
2013-04-09 04:01:00,27.3,21.3,30.29,West,265,0.0,0.0,78,0.00,CLR,,0.00,WeatherDisplay:10.37,2013-04-09 11:01:00,
2013-04-09 04:06:00,27.2,21.2,30.30,West,265,0.0,0.0,78,0.00,CLR,,0.00,WeatherDisplay:10.37,2013-04-09 11:06:00,
2013-04-09 04:11:00,27.0,21.1,30.30,West,265,0.0,0.0,78,0.00,CLR,,0.00,WeatherDisplay:10.37,2013-04-09 11:11:00,
2013-04-09 04:17:00,26.9,21.0,30.30,West,265,0.0,0.0,78,0.00,CLR,,0.00,WeatherDisplay:10.37,2013-04-09 11:17:00,
2013-04-09 04:22:00,26.7,20.8,30.30,West,265,0.0,0.0,78,0.00,CLR,,0.00,WeatherDisplay:10.37,2013-04-09 11:22:00,
2013-04-09 04:27:00,26.7,21.1,30.30,West,265,0.0,0.0,79,0.00,CLR,,0.00,WeatherDisplay:10.37,2013-04-09 11:27:00,
2013-04-09 04:32:00,26.6,21.0,30.30,West,265,0.0,0.0,79,0.00,CLR,,0.00,WeatherDisplay:10.37,2013-04-09 11:32:00,
2013-04-09 04:37:00,26.4,20.8,30.30,West,265,0.0,0.0,79,0.00,CLR,,0.00,WeatherDisplay:10.37,2013-04-09 11:37:00,
2013-04-09 04:42:00,26.3,20.7,30.30,West,265,0.0,0.0,79,0.00,CLR,,0.00,WeatherDisplay:10.37,2013-04-09 11:42:00,
2013-04-09 04:47:00,26.1,20.5,30.30,West,265,0.0,0.0,79,0.00,CLR,,0.00,WeatherDisplay:10.37,2013-04-09 11:47:00,
2013-04-09 04:52:00,26.1,20.5,30.30,West,261,0.0,0.0,79,0.00,CLR,,0.00,WeatherDisplay:10.37,2013-04-09 11:52:00,
2013-04-09 04:57:00,26.0,20.4,30.30,West,260,0.0,0.0,79,0.00,CLR,,0.00,WeatherDisplay:10.37,2013-04-09 11:57:00,
2013-04-09 05:02:00,26.3,20.7,30.31,WSW,246,0.0,0.0,79,0.00,CLR,,0.00,WeatherDisplay:10.37,2013-04-09 12:02:00,
2013-04-09 05:07:00,26.4,20.8,30.31,SW,224,0.0,0.0,79,0.00,CLR,,0.00,WeatherDisplay:10.37,2013-04-09 12:07:00,
2013-04-09 05:12:00,26.6,21.0,30.30,SW,224,0.0,0.0,79,0.00,CLR,,0.00,WeatherDisplay:10.37,2013-04-09 12:12:00,
2013-04-09 05:17:00,26.6,21.0,30.30,SW,224,0.0,0.0,79,0.00,CLR,,0.00,WeatherDisplay:10.37,2013-04-09 12:17:00,
2013-04-09 05:22:00,26.7,21.1,30.30,SW,224,0.0,0.0,79,0.00,CLR,,0.00,WeatherDisplay:10.37,2013-04-09 12:22:00,
2013-04-09 05:27:00,26.6,21.0,30.30,SW,223,0.0,0.0,79,0.00,CLR,,0.00,WeatherDisplay:10.37,2013-04-09 12:27:00,
2013-04-09 05:32:00,26.4,21.1,30.30,SW,224,0.0,0.0,80,0.00,CLR,,0.00,WeatherDisplay:10.37,2013-04-09 12:32:00,
2013-04-09 05:37:00,26.3,21.0,30.31,SW,224,0.0,0.0,80,0.00,CLR,,0.00,WeatherDisplay:10.37,2013-04-09 12:37:00,
2013-04-09 05:42:00,26.3,21.0,30.31,SW,224,0.0,0.0,80,0.00,CLR,,0.00,WeatherDisplay:10.37,2013-04-09 12:42:00,
2013-04-09 05:47:00,26.1,20.8,30.31,SW,224,0.0,0.0,80,0.00,CLR,,0.00,WeatherDisplay:10.37,2013-04-09 12:47:00,
2013-04-09 05:52:00,26.1,20.8,30.32,SW,224,0.0,0.0,80,0.00,CLR,,0.00,WeatherDisplay:10.37,2013-04-09 12:52:00,
2013-04-09 05:58:00,26.3,21.0,30.32,SW,223,0.0,0.0,80,0.00,CLR,,0.00,WeatherDisplay:10.37,2013-04-09 12:58:00,
2013-04-09 06:03:00,26.1,20.8,30.33,SW,224,0.0,0.0,80,0.00,CLR,,0.00,WeatherDisplay:10.37,2013-04-09 13:03:00,
2013-04-09 06:08:00,26.1,20.8,30.33,SW,224,0.0,0.0,80,0.00,CLR,,0.00,WeatherDisplay:10.37,2013-04-09 13:08:00,
2013-04-09 06:13:00,26.0,20.7,30.34,SW,224,0.0,0.0,80,0.00,CLR,,0.00,WeatherDisplay:10.37,2013-04-09 13:13:00,
2013-04-09 06:18:00,26.0,20.7,30.34,SW,224,0.0,0.0,80,0.00,CLR,,0.00,WeatherDisplay:10.37,2013-04-09 13:18:00,
2013-04-09 06:23:00,26.0,20.7,30.34,SW,224,0.0,0.0,80,0.00,CLR,,0.00,WeatherDisplay:10.37,2013-04-09 13:23:00,
2013-04-09 06:29:00,26.0,20.7,30.34,SW,224,0.0,0.0,80,0.00,CLR,,0.00,WeatherDisplay:10.37,2013-04-09 13:29:00,
2013-04-09 06:34:00,26.1,20.8,30.34,SW,224,0.0,0.0,80,0.00,CLR,,0.00,WeatherDisplay:10.37,2013-04-09 13:34:00,
2013-04-09 06:40:00,26.1,20.8,30.34,SW,224,0.0,0.0,80,0.00,CLR,,0.00,WeatherDisplay:10.37,2013-04-09 13:40:00,
2013-04-09 06:46:00,26.1,20.8,30.34,SW,223,0.0,0.0,80,0.00,CLR,,0.00,WeatherDisplay:10.37,2013-04-09 13:46:00,
2013-04-09 06:51:00,26.3,21.0,30.34,SW,224,0.0,0.0,80,0.00,CLR,,0.00,WeatherDisplay:10.37,2013-04-09 13:51:00,
2013-04-09 06:56:00,26.6,21.3,30.33,SW,224,0.0,0.0,80,0.00,CLR,,0.00,WeatherDisplay:10.37,2013-04-09 13:56:00,
2013-04-09 07:01:00,26.9,21.3,30.33,SW,224,0.0,0.0,79,0.00,CLR,,0.00,WeatherDisplay:10.37,2013-04-09 14:01:00,
2013-04-09 07:07:00,27.3,21.6,30.35,SW,224,0.0,0.0,79,0.00,CLR,,0.00,WeatherDisplay:10.37,2013-04-09 14:07:00,
2013-04-09 07:12:00,27.6,21.6,30.35,SW,224,0.0,0.0,78,0.00,CLR,,0.00,WeatherDisplay:10.37,2013-04-09 14:12:00,
2013-04-09 07:18:00,27.9,21.9,30.35,SW,224,0.0,0.0,78,0.00,CLR,,0.00,WeatherDisplay:10.37,2013-04-09 14:18:00,
2013-04-09 07:23:00,28.4,22.1,30.35,SW,224,0.0,0.0,77,0.00,CLR,,0.00,WeatherDisplay:10.37,2013-04-09 14:23:00,
2013-04-09 07:28:00,28.8,22.2,30.36,SW,220,0.0,0.0,76,0.00,CLR,,0.00,WeatherDisplay:10.37,2013-04-09 14:28:00,
2013-04-09 07:33:00,29.1,22.5,30.36,SW,220,0.0,0.0,76,0.00,CLR,,0.00,WeatherDisplay:10.37,2013-04-09 14:33:00,
2013-04-09 07:39:00,29.7,22.7,30.35,SW,220,0.0,0.0,75,0.00,CLR,,0.00,WeatherDisplay:10.37,2013-04-09 14:39:00,
2013-04-09 07:45:00,30.3,23.0,30.35,SW,220,0.0,0.0,74,0.00,CLR,,0.00,WeatherDisplay:10.37,2013-04-09 14:45:00,
2013-04-09 07:50:00,30.9,23.6,30.35,SW,220,0.0,0.0,74,0.00,CLR,,0.00,WeatherDisplay:10.37,2013-04-09 14:50:00,
2013-04-09 07:55:00,31.6,23.9,30.34,SW,220,0.0,0.0,73,0.00,CLR,,0.00,WeatherDisplay:10.37,2013-04-09 14:55:00,
2013-04-09 08:00:00,32.2,24.2,30.34,SW,220,0.0,0.0,72,0.00,CLR,,0.00,WeatherDisplay:10.37,2013-04-09 15:00:00,
2013-04-09 08:05:00,32.9,24.5,30.35,SW,220,0.0,0.0,71,0.00,CLR,,0.00,WeatherDisplay:10.37,2013-04-09 15:05:00,
2013-04-09 08:11:00,33.5,25.1,30.35,SW,220,0.0,0.0,71,0.00,CLR,,0.00,WeatherDisplay:10.37,2013-04-09 15:11:00,
2013-04-09 08:16:00,34.3,25.2,30.35,SW,220,0.0,0.0,69,0.00,CLR,,0.00,WeatherDisplay:10.37,2013-04-09 15:16:00,
2013-04-09 08:22:00,35.3,25.8,30.35,SW,220,0.0,0.0,68,0.00,CLR,,0.00,WeatherDisplay:10.37,2013-04-09 15:22:00,
2013-04-09 08:28:00,36.2,26.3,30.35,SW,220,0.0,0.0,67,0.00,CLR,,0.00,WeatherDisplay:10.37,2013-04-09 15:28:00,
2013-04-09 08:33:00,36.9,26.2,30.34,SW,220,0.0,0.0,65,0.00,CLR,,0.00,WeatherDisplay:10.37,2013-04-09 15:33:00,
2013-04-09 08:38:00,37.5,25.7,30.33,SW,220,0.0,0.0,62,0.00,CLR,,0.00,WeatherDisplay:10.37,2013-04-09 15:38:00,
2013-04-09 08:43:00,38.3,26.4,30.33,SW,220,0.0,0.0,62,0.00,CLR,,0.00,WeatherDisplay:10.37,2013-04-09 15:43:00,
2013-04-09 08:49:00,39.5,26.3,30.33,SW,220,0.0,0.0,59,0.00,CLR,,0.00,WeatherDisplay:10.37,2013-04-09 15:49:00,
2013-04-09 08:55:00,40.6,27.4,30.33,SW,220,0.0,0.0,59,0.00,CLR,,0.00,WeatherDisplay:10.37,2013-04-09 15:55:00,
2013-04-09 09:00:00,41.3,26.8,30.32,SW,220,0.0,0.0,56,0.00,CLR,,0.00,WeatherDisplay:10.37,2013-04-09 16:00:00,
2013-04-09 09:05:00,41.8,26.4,30.33,SSE,160,0.0,0.0,54,0.00,CLR,,0.00,WeatherDisplay:10.37,2013-04-09 16:05:00,
2013-04-09 09:10:00,41.8,25.4,30.33,SSE,160,0.0,0.0,52,0.00,CLR,,0.00,WeatherDisplay:10.37,2013-04-09 16:10:00,
2013-04-09 09:15:00,42.1,25.7,30.33,SSE,160,0.0,0.0,52,0.00,CLR,,0.00,WeatherDisplay:10.37,2013-04-09 16:15:00,
2013-04-09 09:20:00,42.2,26.3,30.32,SSE,160,0.0,0.0,53,0.00,CLR,,0.00,WeatherDisplay:10.37,2013-04-09 16:20:00,
2013-04-09 09:25:00,42.3,26.8,30.32,SSE,160,0.0,0.0,54,0.00,CLR,,0.00,WeatherDisplay:10.37,2013-04-09 16:25:00,
2013-04-09 09:31:00,42.7,26.7,30.31,SSE,160,0.0,0.0,53,0.00,CLR,,0.00,WeatherDisplay:10.37,2013-04-09 16:31:00,
2013-04-09 09:36:00,43.2,27.7,30.31,SSE,160,0.0,0.0,54,0.00,CLR,,0.00,WeatherDisplay:10.37,2013-04-09 16:36:00,
2013-04-09 09:41:00,43.5,27.0,30.31,SSE,160,0.0,0.0,52,0.00,CLR,,0.00,WeatherDisplay:10.37,2013-04-09 16:41:00,
2013-04-09 09:46:00,43.9,27.4,30.31,SSE,160,0.0,0.0,52,0.00,CLR,,0.00,WeatherDisplay:10.37,2013-04-09 16:46:00,
2013-04-09 09:52:00,44.1,26.6,30.31,SSE,160,0.0,0.0,50,0.00,CLR,,0.00,WeatherDisplay:10.37,2013-04-09 16:52:00,
2013-04-09 09:57:00,44.8,27.3,30.31,SSE,160,0.0,0.0,50,0.00,CLR,,0.00,WeatherDisplay:10.37,2013-04-09 16:57:00,
2013-04-09 10:02:00,44.2,27.7,30.31,West,260,0.0,0.0,52,0.00,CLR,,0.00,WeatherDisplay:10.37,2013-04-09 17:02:00,
2013-04-09 10:08:00,44.1,27.1,30.33,West,260,0.0,0.0,51,0.00,CLR,,0.00,WeatherDisplay:10.37,2013-04-09 17:08:00,
2013-04-09 10:13:00,44.3,27.3,30.33,NNE,27,0.0,0.0,51,0.00,CLR,,0.00,WeatherDisplay:10.37,2013-04-09 17:13:00,
2013-04-09 10:19:00,44.8,27.3,30.32,NNE,25,0.0,0.0,50,0.00,CLR,,0.00,WeatherDisplay:10.37,2013-04-09 17:19:00,
2013-04-09 10:24:00,45.4,27.3,30.32,NNE,25,0.0,0.0,49,0.00,CLR,,0.00,WeatherDisplay:10.37,2013-04-09 17:24:00,
2013-04-09 10:30:00,45.2,27.2,30.32,NNE,23,0.0,0.0,49,0.00,CLR,,0.00,WeatherDisplay:10.37,2013-04-09 17:30:00,
2013-04-09 10:35:00,45.1,28.0,30.32,NW,308,0.0,0.0,51,0.00,CLR,,0.00,WeatherDisplay:10.37,2013-04-09 17:35:00,
2013-04-09 10:40:00,45.1,26.6,30.32,NW,316,0.0,0.0,48,0.00,CLR,,0.00,WeatherDisplay:10.37,2013-04-09 17:40:00,
2013-04-09 10:45:00,45.8,28.2,30.32,NW,316,0.0,0.0,50,0.00,CLR,,0.00,WeatherDisplay:10.37,2013-04-09 17:45:00,
2013-04-09 10:50:00,47.1,27.9,30.31,NNW,330,0.0,0.0,47,0.00,CLR,,0.00,WeatherDisplay:10.37,2013-04-09 17:50:00,
2013-04-09 10:55:00,47.7,27.9,30.32,NNW,330,0.0,0.0,46,0.00,CLR,,0.00,WeatherDisplay:10.37,2013-04-09 17:55:00,
2013-04-09 11:00:00,47.1,27.9,30.32,NW,325,0.0,0.0,47,0.00,CLR,,0.00,WeatherDisplay:10.37,2013-04-09 18:00:00,
2013-04-09 11:05:00,46.7,27.0,30.33,NW,309,0.0,0.0,46,0.00,CLR,,0.00,WeatherDisplay:10.37,2013-04-09 18:05:00,
2013-04-09 11:10:00,46.5,26.8,30.33,NW,309,0.0,0.0,46,0.00,CLR,,0.00,WeatherDisplay:10.37,2013-04-09 18:10:00,
2013-04-09 11:15:00,46.8,26.6,30.33,WNW,298,0.0,0.0,45,0.00,CLR,,0.00,WeatherDisplay:10.37,2013-04-09 18:15:00,
2013-04-09 11:20:00,47.4,26.0,30.33,WNW,298,0.0,0.0,43,0.00,CLR,,0.00,WeatherDisplay:10.37,2013-04-09 18:20:00,
2013-04-09 11:25:00,47.4,24.9,30.33,North,4,0.0,0.0,41,0.00,CLR,,0.00,WeatherDisplay:10.37,2013-04-09 18:25:00,
2013-04-09 11:30:00,47.0,24.5,30.33,North,1,0.0,0.0,41,0.00,CLR,,0.00,WeatherDisplay:10.37,2013-04-09 18:30:00,
2013-04-09 11:35:00,47.3,24.2,30.33,North,4,0.0,0.0,40,0.00,CLR,,0.00,WeatherDisplay:10.37,2013-04-09 18:35:00,
2013-04-09 11:40:00,47.7,24.5,30.33,NNE,24,0.0,0.0,40,0.00,CLR,,0.00,WeatherDisplay:10.37,2013-04-09 18:40:00,
2013-04-09 11:45:00,48.6,25.3,30.32,NNE,27,0.0,0.0,40,0.00,CLR,,0.00,WeatherDisplay:10.37,2013-04-09 18:45:00,
2013-04-09 11:50:00,50.4,25.7,30.32,NE,49,0.0,0.0,38,0.00,CLR,,0.00,WeatherDisplay:10.37,2013-04-09 18:50:00,
2013-04-09 11:55:00,50.7,25.3,30.31,NE,54,0.0,0.0,37,0.00,CLR,,0.00,WeatherDisplay:10.37,2013-04-09 18:55:00,
2013-04-09 12:00:00,50.2,25.5,30.32,WNW,295,0.0,0.0,38,0.00,CLR,,0.00,WeatherDisplay:10.37,2013-04-09 19:00:00,
2013-04-09 12:05:00,49.5,24.9,30.32,NW,313,0.0,0.0,38,0.00,CLR,,0.00,WeatherDisplay:10.37,2013-04-09 19:05:00,
2013-04-09 12:11:00,49.5,25.5,30.32,WNW,303,0.0,0.0,39,0.00,CLR,,0.00,WeatherDisplay:10.37,2013-04-09 19:11:00,
2013-04-09 12:16:00,49.5,22.9,30.32,WNW,301,0.0,0.0,35,0.00,CLR,,0.00,WeatherDisplay:10.37,2013-04-09 19:16:00,
2013-04-09 12:22:00,49.4,24.2,30.32,WNW,294,0.0,0.0,37,0.00,CLR,,0.00,WeatherDisplay:10.37,2013-04-09 19:22:00,
2013-04-09 12:27:00,49.6,23.7,30.32,WNW,291,0.0,0.0,36,0.00,CLR,,0.00,WeatherDisplay:10.37,2013-04-09 19:27:00,
2013-04-09 12:33:00,50.5,24.5,30.31,NNW,330,0.0,0.0,36,0.00,CLR,,0.00,WeatherDisplay:10.37,2013-04-09 19:33:00,
2013-04-09 12:38:00,51.1,25.0,30.30,West,264,0.0,0.0,36,0.00,CLR,,0.00,WeatherDisplay:10.37,2013-04-09 19:38:00,
2013-04-09 12:43:00,51.0,25.0,30.30,WNW,294,2.0,2.0,36,0.00,CLR,,0.00,WeatherDisplay:10.37,2013-04-09 19:43:00,
2013-04-09 12:48:00,50.4,23.7,30.30,WNW,298,0.0,0.0,35,0.00,CLR,,0.00,WeatherDisplay:10.37,2013-04-09 19:48:00,
2013-04-09 12:53:00,50.1,22.8,30.30,WNW,298,0.0,0.0,34,0.00,CLR,,0.00,WeatherDisplay:10.37,2013-04-09 19:53:00,
2013-04-09 12:59:00,49.9,22.6,30.30,WNW,296,0.0,0.0,34,0.00,CLR,,0.00,WeatherDisplay:10.37,2013-04-09 19:59:00,
2013-04-09 13:04:00,50.2,21.4,30.30,WNW,296,0.0,0.0,32,0.00,CLR,,0.00,WeatherDisplay:10.37,2013-04-09 20:04:00,
2013-04-09 13:09:00,51.1,21.5,30.30,WNW,298,0.0,0.0,31,0.00,CLR,,0.00,WeatherDisplay:10.37,2013-04-09 20:09:00,
2013-04-09 13:14:00,51.6,21.1,30.29,West,277,1.1,0.0,30,0.00,CLR,,0.00,WeatherDisplay:10.37,2013-04-09 20:14:00,
2013-04-09 13:20:00,51.4,19.3,30.30,NW,316,0.0,0.0,28,0.00,CLR,,0.00,WeatherDisplay:10.37,2013-04-09 20:20:00,
2013-04-09 13:25:00,51.9,21.4,30.28,NW,316,0.0,0.0,30,0.00,CLR,,0.00,WeatherDisplay:10.37,2013-04-09 20:25:00,
2013-04-09 13:31:00,52.0,19.9,30.28,NW,316,0.0,0.0,28,0.00,CLR,,0.00,WeatherDisplay:10.37,2013-04-09 20:31:00,
2013-04-09 13:37:00,52.6,20.4,30.28,NW,304,1.1,0.0,28,0.00,CLR,,0.00,WeatherDisplay:10.37,2013-04-09 20:37:00,
2013-04-09 13:42:00,52.5,21.1,30.28,WNW,285,0.0,0.0,29,0.00,CLR,,0.00,WeatherDisplay:10.37,2013-04-09 20:42:00,
2013-04-09 13:47:00,53.3,21.8,30.28,NNW,346,10.0,10.0,29,0.00,CLR,,0.00,WeatherDisplay:10.37,2013-04-09 20:47:00,
2013-04-09 13:52:00,53.3,21.0,30.28,NNW,339,0.0,0.0,28,0.00,CLR,,0.00,WeatherDisplay:10.37,2013-04-09 20:52:00,
2013-04-09 13:58:00,53.5,21.2,30.27,WSW,256,0.0,0.0,28,0.00,CLR,,0.00,WeatherDisplay:10.37,2013-04-09 20:58:00,
2013-04-09 14:03:00,53.6,21.2,30.28,SW,223,0.0,0.0,28,0.00,CLR,,0.00,WeatherDisplay:10.37,2013-04-09 21:03:00,
2013-04-09 14:08:00,53.6,23.7,30.28,West,270,1.1,0.0,31,0.00,CLR,,0.00,WeatherDisplay:10.37,2013-04-09 21:08:00,
2013-04-09 14:13:00,53.6,22.1,30.28,South,171,0.0,0.0,29,0.00,CLR,,0.00,WeatherDisplay:10.37,2013-04-09 21:13:00,
2013-04-09 14:18:00,53.8,23.1,30.28,West,260,0.0,0.0,30,0.00,CLR,,0.00,WeatherDisplay:10.37,2013-04-09 21:18:00,
2013-04-09 14:23:00,54.4,22.8,30.27,WNW,292,0.0,0.0,29,0.00,CLR,,0.00,WeatherDisplay:10.37,2013-04-09 21:23:00,
2013-04-09 14:28:00,55.6,23.0,30.26,WNW,285,0.0,0.0,28,0.00,CLR,,0.00,WeatherDisplay:10.37,2013-04-09 21:28:00,
2013-04-09 14:33:00,55.4,20.1,30.26,WNW,298,0.0,0.0,25,0.00,CLR,,0.00,WeatherDisplay:10.37,2013-04-09 21:33:00,
2013-04-09 14:38:00,54.8,20.5,30.26,West,271,0.0,0.0,26,0.00,CLR,,0.00,WeatherDisplay:10.37,2013-04-09 21:38:00,
2013-04-09 14:43:00,54.5,18.4,30.26,West,281,1.1,0.0,24,0.00,CLR,,0.00,WeatherDisplay:10.37,2013-04-09 21:43:00,
2013-04-09 14:48:00,54.7,17.6,30.25,NW,304,0.0,0.0,23,0.00,CLR,,0.00,WeatherDisplay:10.37,2013-04-09 21:48:00,
2013-04-09 14:53:00,54.7,15.5,30.26,NW,318,0.0,0.0,21,0.00,CLR,,0.00,WeatherDisplay:10.37,2013-04-09 21:53:00,
2013-04-09 14:58:00,54.8,14.4,30.26,WNW,282,11.5,11.5,20,0.00,CLR,,0.00,WeatherDisplay:10.37,2013-04-09 21:58:00,
2013-04-09 15:03:00,54.8,12.0,30.26,WNW,296,2.3,2.3,18,0.00,CLR,,0.00,WeatherDisplay:10.37,2013-04-09 22:03:00,
2013-04-09 15:08:00,54.7,14.4,30.26,WNW,298,8.1,8.1,20,0.00,CLR,,0.00,WeatherDisplay:10.37,2013-04-09 22:08:00,
2013-04-09 15:13:00,54.7,14.4,30.26,West,267,2.3,2.3,20,0.00,CLR,,0.00,WeatherDisplay:10.37,2013-04-09 22:13:00,
2013-04-09 15:18:00,54.7,16.5,30.26,West,278,2.3,0.0,22,0.00,CLR,,0.00,WeatherDisplay:10.37,2013-04-09 22:18:00,
2013-04-09 15:23:00,54.7,18.6,30.25,West,271,0.0,0.0,24,0.00,CLR,,0.00,WeatherDisplay:10.37,2013-04-09 22:23:00,
2013-04-09 15:28:00,54.8,17.7,30.25,West,272,0.0,0.0,23,0.00,CLR,,0.00,WeatherDisplay:10.37,2013-04-09 22:28:00,
2013-04-09 15:33:00,55.3,21.0,30.25,West,277,1.1,0.0,26,0.00,CLR,,0.00,WeatherDisplay:10.37,2013-04-09 22:33:00,
2013-04-09 15:39:00,55.6,19.3,30.25,NW,308,0.0,0.0,24,0.00,CLR,,0.00,WeatherDisplay:10.37,2013-04-09 22:39:00,
2013-04-09 15:44:00,56.2,23.5,30.24,West,263,0.0,0.0,28,0.00,CLR,,0.00,WeatherDisplay:10.37,2013-04-09 22:44:00,
2013-04-09 15:50:00,55.9,21.5,30.24,West,268,2.3,2.3,26,0.00,CLR,,0.00,WeatherDisplay:10.37,2013-04-09 22:50:00,
2013-04-09 15:55:00,55.6,19.3,30.25,West,260,2.3,2.3,24,0.00,CLR,,0.00,WeatherDisplay:10.37,2013-04-09 22:55:00,
2013-04-09 16:00:00,55.4,19.2,30.24,West,278,0.0,0.0,24,0.00,CLR,,0.00,WeatherDisplay:10.37,2013-04-09 23:00:00,
2013-04-09 16:05:00,55.6,20.3,30.25,WNW,295,1.1,0.0,25,0.00,CLR,,0.00,WeatherDisplay:10.37,2013-04-09 23:05:00,
2013-04-09 16:10:00,55.7,19.4,30.25,WNW,298,0.0,0.0,24,0.00,CLR,,0.00,WeatherDisplay:10.37,2013-04-09 23:10:00,
2013-04-09 16:16:00,56.0,18.7,30.25,WNW,286,0.0,3.0,23,0.00,CLR,,0.00,WeatherDisplay:10.37,2013-04-09 23:16:00,
2013-04-09 16:21:00,55.6,16.2,30.25,WNW,285,0.0,3.0,21,0.00,CLR,,0.00,WeatherDisplay:10.37,2013-04-09 23:21:00,
2013-04-09 16:26:00,56.0,15.4,30.24,WNW,282,0.0,0.0,20,0.00,CLR,,0.00,WeatherDisplay:10.37,2013-04-09 23:26:00,
2013-04-09 16:32:00,56.5,10.8,30.25,WNW,292,10.4,10.4,16,0.00,CLR,,0.00,WeatherDisplay:10.37,2013-04-09 23:32:00,
2013-04-09 16:37:00,56.3,10.6,30.24,WNW,301,3.0,3.0,16,0.00,CLR,,0.00,WeatherDisplay:10.37,2013-04-09 23:37:00,
2013-04-09 16:42:00,56.0,10.4,30.24,WNW,288,0.0,0.0,16,0.00,CLR,,0.00,WeatherDisplay:10.37,2013-04-09 23:42:00,
2013-04-09 16:47:00,56.2,11.9,30.24,WNW,288,0.0,0.0,17,0.00,CLR,,0.00,WeatherDisplay:10.37,2013-04-09 23:47:00,
2013-04-09 16:52:00,56.2,10.5,30.24,WNW,289,0.0,0.0,16,0.00,CLR,,0.00,WeatherDisplay:10.37,2013-04-09 23:52:00,
2013-04-09 16:57:00,56.5,14.7,30.24,West,270,3.5,3.5,19,0.00,CLR,,0.00,WeatherDisplay:10.37,2013-04-09 23:57:00,
2013-04-09 17:02:00,56.2,15.6,30.24,West,278,2.3,2.3,20,0.00,CLR,,0.00,WeatherDisplay:10.37,2013-04-10 00:02:00,
2013-04-09 17:07:00,56.3,18.9,30.24,West,264,1.1,0.0,23,0.00,CLR,,0.00,WeatherDisplay:10.37,2013-04-10 00:07:00,
2013-04-09 17:12:00,56.3,19.9,30.24,West,267,0.0,0.0,24,0.00,CLR,,0.00,WeatherDisplay:10.37,2013-04-10 00:12:00,
2013-04-09 17:17:00,56.5,21.1,30.24,West,267,1.1,1.1,25,0.00,CLR,,0.00,WeatherDisplay:10.37,2013-04-10 00:17:00,
2013-04-09 17:22:00,56.3,21.8,30.24,WSW,251,12.0,12.0,26,0.00,CLR,,0.00,WeatherDisplay:10.37,2013-04-10 00:22:00,
2013-04-09 17:28:00,56.5,22.9,30.24,West,278,8.1,8.1,27,0.00,CLR,,0.00,WeatherDisplay:10.37,2013-04-10 00:28:00,
2013-04-09 17:33:00,56.2,21.7,30.24,WNW,294,12.0,12.0,26,0.00,CLR,,0.00,WeatherDisplay:10.37,2013-04-10 00:33:00,
2013-04-09 17:38:00,55.9,21.5,30.24,WNW,285,1.1,0.0,26,0.00,CLR,,0.00,WeatherDisplay:10.37,2013-04-10 00:38:00,
2013-04-09 17:43:00,55.9,21.5,30.24,West,271,3.0,3.0,26,0.00,CLR,,0.00,WeatherDisplay:10.37,2013-04-10 00:43:00,
2013-04-09 17:48:00,56.5,20.1,30.24,West,270,3.5,3.5,24,0.00,CLR,,0.00,WeatherDisplay:10.37,2013-04-10 00:48:00,
2013-04-09 17:53:00,56.6,20.2,30.24,West,261,11.5,11.5,24,0.00,CLR,,0.00,WeatherDisplay:10.37,2013-04-10 00:53:00,
2013-04-09 17:58:00,56.5,21.1,30.24,West,267,1.1,0.0,25,0.00,CLR,,0.00,WeatherDisplay:10.37,2013-04-10 00:58:00,
2013-04-09 18:04:00,56.3,22.7,30.24,WNW,291,2.0,2.0,27,0.00,CLR,,0.00,WeatherDisplay:10.37,2013-04-10 01:04:00,
2013-04-09 18:09:00,56.2,22.6,30.24,West,261,0.0,0.0,27,0.00,CLR,,0.00,WeatherDisplay:10.37,2013-04-10 01:09:00,
2013-04-09 18:14:00,55.9,23.2,30.24,West,265,0.0,0.0,28,0.00,CLR,,0.00,WeatherDisplay:10.37,2013-04-10 01:14:00,
2013-04-09 18:19:00,55.4,26.0,30.24,West,271,0.0,0.0,32,0.00,CLR,,0.00,WeatherDisplay:10.37,2013-04-10 01:19:00,
2013-04-09 18:24:00,54.8,24.7,30.24,West,261,1.1,0.0,31,0.00,CLR,,0.00,WeatherDisplay:10.37,2013-04-10 01:24:00,
2013-04-09 18:29:00,54.2,26.4,30.25,WNW,282,2.3,0.0,34,0.00,CLR,,0.00,WeatherDisplay:10.37,2013-04-10 01:29:00,
2013-04-09 18:34:00,53.6,27.3,30.25,West,278,1.1,1.1,36,0.00,CLR,,0.00,WeatherDisplay:10.37,2013-04-10 01:34:00,
2013-04-09 18:39:00,53.2,28.9,30.25,WNW,292,1.0,1.0,39,0.00,CLR,,0.00,WeatherDisplay:10.37,2013-04-10 01:39:00,
2013-04-09 18:44:00,52.9,29.2,30.25,WNW,294,0.0,0.0,40,0.00,CLR,,0.00,WeatherDisplay:10.37,2013-04-10 01:44:00,
2013-04-09 18:49:00,52.8,28.5,30.25,West,281,1.1,0.0,39,0.00,CLR,,0.00,WeatherDisplay:10.37,2013-04-10 01:49:00,
2013-04-09 18:54:00,52.6,28.3,30.25,West,280,0.0,0.0,39,0.00,CLR,,0.00,WeatherDisplay:10.37,2013-04-10 01:54:00,
2013-04-09 18:59:00,52.5,28.2,30.25,West,275,0.0,0.0,39,0.00,CLR,,0.00,WeatherDisplay:10.37,2013-04-10 01:59:00,
2013-04-09 19:04:00,52.3,28.7,30.23,West,275,0.0,0.0,40,0.00,CLR,,0.00,WeatherDisplay:10.37,2013-04-10 02:04:00,
2013-04-09 19:09:00,52.2,29.2,30.23,West,275,0.0,0.0,41,0.00,CLR,,0.00,WeatherDisplay:10.37,2013-04-10 02:09:00,
2013-04-09 19:14:00,51.9,29.5,30.22,West,277,0.0,0.0,42,0.00,CLR,,0.00,WeatherDisplay:10.37,2013-04-10 02:14:00,
2013-04-09 19:20:00,51.7,29.9,30.22,West,275,0.0,0.0,43,0.00,CLR,,0.00,WeatherDisplay:10.37,2013-04-10 02:20:00,
2013-04-09 19:25:00,51.6,29.8,30.22,West,275,0.0,0.0,43,0.00,CLR,,0.00,WeatherDisplay:10.37,2013-04-10 02:25:00,
2013-04-09 19:30:00,51.4,30.2,30.23,West,275,0.0,0.0,44,0.00,CLR,,0.00,WeatherDisplay:10.37,2013-04-10 02:30:00,
2013-04-09 19:35:00,51.1,30.5,30.24,West,275,0.0,0.0,45,0.00,CLR,,0.00,WeatherDisplay:10.37,2013-04-10 02:35:00,
2013-04-09 19:40:00,50.8,30.2,30.24,West,275,0.0,0.0,45,0.00,CLR,,0.00,WeatherDisplay:10.37,2013-04-10 02:40:00,
2013-04-09 19:45:00,50.7,30.7,30.24,West,275,0.0,0.0,46,0.00,CLR,,0.00,WeatherDisplay:10.37,2013-04-10 02:45:00,
2013-04-09 19:50:00,50.4,30.9,30.24,West,275,0.0,0.0,47,0.00,CLR,,0.00,WeatherDisplay:10.37,2013-04-10 02:50:00,
2013-04-09 19:55:00,50.2,31.2,30.24,West,277,0.0,0.0,48,0.00,CLR,,0.00,WeatherDisplay:10.37,2013-04-10 02:55:00,
2013-04-09 20:00:00,50.1,31.7,30.24,West,277,0.0,0.0,49,0.00,CLR,,0.00,WeatherDisplay:10.37,2013-04-10 03:00:00,
2013-04-09 20:05:00,49.8,31.9,30.22,West,277,0.0,0.0,50,0.00,CLR,,0.00,WeatherDisplay:10.37,2013-04-10 03:05:00,
2013-04-09 20:10:00,49.6,31.7,30.22,West,278,0.0,0.0,50,0.00,CLR,,0.00,WeatherDisplay:10.37,2013-04-10 03:10:00,
2013-04-09 20:15:00,49.5,31.6,30.22,West,277,0.0,0.0,50,0.00,CLR,,0.00,WeatherDisplay:10.37,2013-04-10 03:15:00,
2013-04-09 20:20:00,49.4,32.0,30.22,West,278,0.0,0.0,51,0.00,CLR,,0.00,WeatherDisplay:10.37,2013-04-10 03:20:00,
2013-04-09 20:25:00,49.2,31.8,30.21,West,278,0.0,0.0,51,0.00,CLR,,0.00,WeatherDisplay:10.37,2013-04-10 03:25:00,
2013-04-09 20:30:00,49.1,31.7,30.21,West,278,0.0,0.0,51,0.00,CLR,,0.00,WeatherDisplay:10.37,2013-04-10 03:30:00,
2013-04-09 20:35:00,48.8,31.9,30.21,West,277,0.0,0.0,52,0.00,CLR,,0.00,WeatherDisplay:10.37,2013-04-10 03:35:00,
2013-04-09 20:40:00,48.5,32.1,30.21,West,278,0.0,0.0,53,0.00,CLR,,0.00,WeatherDisplay:10.37,2013-04-10 03:40:00,
2013-04-09 20:45:00,48.3,31.9,30.22,West,278,0.0,0.0,53,0.00,CLR,,0.00,WeatherDisplay:10.37,2013-04-10 03:45:00,
2013-04-09 20:50:00,48.2,32.3,30.22,West,278,0.0,0.0,54,0.00,CLR,,0.00,WeatherDisplay:10.37,2013-04-10 03:50:00,
2013-04-09 20:55:00,47.9,32.0,30.23,West,278,0.0,0.0,54,0.00,CLR,,0.00,WeatherDisplay:10.37,2013-04-10 03:55:00,
2013-04-09 21:00:00,47.5,32.1,30.22,West,278,0.0,0.0,55,0.00,CLR,,0.00,WeatherDisplay:10.37,2013-04-10 04:00:00,
2013-04-09 21:03:00,47.1,32.2,30.21,West,278,0.0,0.0,56,0.00,CLR,,0.00,WeatherDisplay:10.37,2013-04-10 04:03:00,
2013-04-09 21:08:00,46.8,31.9,30.22,West,278,0.0,0.0,56,0.00,CLR,,0.00,WeatherDisplay:10.37,2013-04-10 04:08:00,
2013-04-09 21:12:00,46.7,31.8,30.22,West,278,0.0,0.0,56,0.00,CLR,,0.00,WeatherDisplay:10.37,2013-04-10 04:12:00,
2013-04-09 21:17:00,46.7,31.8,30.22,West,278,0.0,0.0,56,0.00,CLR,,0.00,WeatherDisplay:10.37,2013-04-10 04:17:00,
2013-04-09 21:22:00,46.8,31.9,30.22,West,277,0.0,0.0,56,0.00,CLR,,0.00,WeatherDisplay:10.37,2013-04-10 04:22:00,
2013-04-09 21:27:00,46.8,32.4,30.22,West,278,0.0,0.0,57,0.00,CLR,,0.00,WeatherDisplay:10.37,2013-04-10 04:27:00,
2013-04-09 21:32:00,46.8,32.4,30.22,West,277,0.0,0.0,57,0.00,CLR,,0.00,WeatherDisplay:10.37,2013-04-10 04:32:00,
2013-04-09 21:37:00,46.8,32.4,30.22,West,278,0.0,0.0,57,0.00,CLR,,0.00,WeatherDisplay:10.37,2013-04-10 04:37:00,
2013-04-09 21:42:00,46.7,32.3,30.22,West,278,0.0,0.0,57,0.00,CLR,,0.00,WeatherDisplay:10.37,2013-04-10 04:42:00,
2013-04-09 21:47:00,46.5,32.5,30.22,West,277,0.0,0.0,58,0.00,CLR,,0.00,WeatherDisplay:10.37,2013-04-10 04:47:00,
2013-04-09 21:52:00,46.0,32.5,30.23,West,278,0.0,0.0,59,0.00,CLR,,0.00,WeatherDisplay:10.37,2013-04-10 04:52:00,
2013-04-09 21:57:00,45.7,32.6,30.24,West,278,0.0,0.0,60,0.00,CLR,,0.00,WeatherDisplay:10.37,2013-04-10 04:57:00,
2013-04-09 22:02:00,45.4,32.7,30.23,West,278,0.0,0.0,61,0.00,CLR,,0.00,WeatherDisplay:10.37,2013-04-10 05:02:00,
2013-04-09 22:07:00,45.1,32.4,30.24,West,278,0.0,0.0,61,0.00,CLR,,0.00,WeatherDisplay:10.37,2013-04-10 05:07:00,
2013-04-09 22:12:00,45.1,32.4,30.23,West,278,0.0,0.0,61,0.00,CLR,,0.00,WeatherDisplay:10.37,2013-04-10 05:12:00,
2013-04-09 22:17:00,45.1,32.8,30.24,West,278,0.0,0.0,62,0.00,CLR,,0.00,WeatherDisplay:10.37,2013-04-10 05:17:00,
2013-04-09 22:22:00,45.1,32.4,30.24,West,278,0.0,0.0,61,0.00,CLR,,0.00,WeatherDisplay:10.37,2013-04-10 05:22:00,
2013-04-09 22:27:00,45.2,32.5,30.24,West,278,0.0,0.0,61,0.00,CLR,,0.00,WeatherDisplay:10.37,2013-04-10 05:27:00,
2013-04-09 22:32:00,45.5,32.4,30.24,West,274,0.0,0.0,60,0.00,CLR,,0.00,WeatherDisplay:10.37,2013-04-10 05:32:00,
2013-04-09 22:38:00,45.7,32.6,30.24,West,274,0.0,0.0,60,0.00,CLR,,0.00,WeatherDisplay:10.37,2013-04-10 05:38:00,
2013-04-09 22:44:00,45.8,32.7,30.24,West,274,0.0,0.0,60,0.00,CLR,,0.00,WeatherDisplay:10.37,2013-04-10 05:44:00,
2013-04-09 22:49:00,45.8,32.3,30.24,West,274,0.0,0.0,59,0.00,CLR,,0.00,WeatherDisplay:10.37,2013-04-10 05:49:00,
2013-04-09 22:54:00,45.8,32.7,30.24,West,274,0.0,0.0,60,0.00,CLR,,0.00,WeatherDisplay:10.37,2013-04-10 05:54:00,
2013-04-09 22:59:00,45.7,33.0,30.24,West,274,0.0,0.0,61,0.00,CLR,,0.00,WeatherDisplay:10.37,2013-04-10 05:59:00,
2013-04-09 23:04:00,45.8,32.7,30.22,West,274,0.0,0.0,60,0.00,CLR,,0.00,WeatherDisplay:10.37,2013-04-10 06:04:00,
2013-04-09 23:09:00,46.0,32.9,30.22,West,274,0.0,0.0,60,0.00,CLR,,0.00,WeatherDisplay:10.37,2013-04-10 06:09:00,
2013-04-09 23:14:00,46.0,32.9,30.22,West,274,0.0,0.0,60,0.00,CLR,,0.00,WeatherDisplay:10.37,2013-04-10 06:14:00,
2013-04-09 23:19:00,45.5,33.2,30.21,West,274,0.0,0.0,62,0.00,CLR,,0.00,WeatherDisplay:10.37,2013-04-10 06:19:00,
2013-04-09 23:24:00,45.1,32.8,30.22,West,274,0.0,0.0,62,0.00,CLR,,0.00,WeatherDisplay:10.37,2013-04-10 06:24:00,
2013-04-09 23:29:00,44.9,33.1,30.22,West,274,0.0,0.0,63,0.00,CLR,,0.00,WeatherDisplay:10.37,2013-04-10 06:29:00,
2013-04-09 23:34:00,44.6,33.2,30.21,West,274,0.0,0.0,64,0.00,CLR,,0.00,WeatherDisplay:10.37,2013-04-10 06:34:00,
2013-04-09 23:39:00,44.3,32.9,30.21,West,274,0.0,0.0,64,0.00,CLR,,0.00,WeatherDisplay:10.37,2013-04-10 06:39:00,
2013-04-09 23:44:00,44.1,33.1,30.21,West,274,0.0,0.0,65,0.00,CLR,,0.00,WeatherDisplay:10.37,2013-04-10 06:44:00,
2013-04-09 23:49:00,43.9,32.9,30.21,West,274,0.0,0.0,65,0.00,CLR,,0.00,WeatherDisplay:10.37,2013-04-10 06:49:00,
2013-04-09 23:54:00,43.8,33.2,30.20,West,272,0.0,0.0,66,0.00,CLR,,0.00,WeatherDisplay:10.37,2013-04-10 06:54:00,
2013-04-09 23:59:00,43.8,33.2,30.20,West,272,0.0,0.0,66,0.00,CLR,,0.00,WeatherDisplay:10.37,2013-04-10 06:59:00,